www.pogodaiklimat.ru

Погода и климат >> Архив погоды >> Мьянма >> Янгон


ПОГОДА у Янгоне

  • Прогноз погоды у Янгоне
  • Монитор погоды у Янгоне

АРХИВ ПОГОДЫ у Янгоне

Время (UTC), дата Ветер
(напр.,м/с)
 
Видим.   Явления Облачность Т
(С)
Тd
(С)
f
(%)
Тe
(С)
Тes
(С)
Комфортность P
(гПа)
Po
(гПа)
Тmin
(С)
Tmax
(С)
R
(мм)
R24
(мм)
S
(см)
00 19.05 ЮЗ 2 6000 м 8/3 600 м
[Sc Ac trans Ci fib]
+27.5 +25.3 88 +40 +41 очень
душно
1007.8 1006.1 +24.2
03 19.05 С 2 7000 м 6/4 600 м
[Cu Sc Ac trans Ci fib]
+31.5 +26.0 73 +47 +54 опасность
перегрева
1009.6 1007.9
06 19.05 ЮВ 2 7000 м 6/6 600 м
[Cu Sc]
+35.5 +24.4 53 +48 +57 опасность
перегрева
1008.3 1006.6
09 19.05 СВ 2 7000 м 5/5 600 м
[Cu Sc]
+37.5 +25.0 49 +51 +56 опасность
перегрева
1006.1 1004.4
12 19.05 ЮВ 1 6000 м 6/4 600 м
[Cb calv Ac trans]
+34.0 +27.0 67 +52 +52 опасность
перегрева
1006.5 1004.8 +37.6
15 19.05 ЮЗ 2 5000 м 8/8 600 м
[Cb cap]
+27.0 +24.0 84 +37 +37 очень
душно
1007.3 1005.6
00 20.05 ЮВ 2 6000 м 6/4 600 м
[Sc Ci fib]
+28.0 +26.8 93 +44 +44 опасность
перегрева
1008.5 1006.8 +26.7
03 20.05 ЮЗ 2 7000 м 6/1 600 м
[Sc Ac trans Ci fib]
+31.5 +26.6 75 +48 +57 опасность
перегрева
1010.6 1008.9
06 20.05 ЮЗ 1 7000 м 6/6 600 м
[Cu Sc]
+36.0 +27.1 60 +54 +64 опасность
перегрева
1009.3 1007.6
09 20.05 ЮЗ 3 7000 м гроза без осадков 5/5 300 м
[Cb calv]
+34.0 +25.7 62 +49 +53 опасность
перегрева
1006.1 1004.4
12 20.05 З 2 6000 м в посл. час морось {гроза} 8/8 300 м
[Cb calv]
+29.0 +24.8 78 +41 +41 опасность
перегрева
1007.7 1006.0 +38.0 0.0
15 20.05 5000 м н/о +28.0 +25.0 84 +40 +40 очень
душно
1009.4 1007.7
00 21.05 ЮВ 1 6000 м 8/8 600 м
[Cb calv]
+26.5 +25.1 92 +38 +38 очень
душно
1008.6 1006.9 +25.5
03 21.05 З 1 7000 м 4/4 600 м
[Cu Sc Ci fib]
+32.0 +26.5 73 +49 +59 опасность
перегрева
1010.6 1008.9
06 21.05 СВ 2 7000 м 6/6 600 м
[Cu Sc]
+31.5 +28.2 83 +52 +61 опасность
перегрева
1009.9 1008.2
09 21.05 ЮЗ 2 7000 м {гроза} 6/3 600 м
[Cu Sc Ac trans Cs]
+34.5 +26.2 62 +51 +56 опасность
перегрева
1008.3 1006.6
12 21.05 ЮЗ 2 8000 м 9/5 600 м
[Cb calv Ac und]
+28.0 +23.3 76 +38 +38 очень
душно
1008.2 1006.5 +37.6
15 21.05 ЮВ 2 5000 м 6/4 600 м
[Sc Ac und]
+28.0 +23.3 76 +38 +38 очень
душно
1009.7 1008.0
00 22.05 ЮВ 2 6000 м 5/4 600 м
[Sc Ac und]
+27.0 +24.0 84 +37 +38 очень
душно
1009.3 1007.6 +26.0
03 22.05 ЮЗ 1 6000 м 9/4 600 м
[Sc]
+31.0 +26.7 78 +48 +54 опасность
перегрева
1010.6 1008.9
06 22.05 ЮЗ 2 7000 м 8/8 600 м
[Cb calv]
+33.5 +25.8 64 +49 +53 опасность
перегрева
1009.6 1007.9
09 22.05 ЮЗ 2 7000 м 6/6 600 м
[Cb calv]
+36.0 +25.6 55 +51 +54 опасность
перегрева
1006.7 1005.0
12 22.05 ЮЗ 3 6000 м гроза с градом 10/8 300 м
[Cb cap As op]
+24.0 +24.0 100 +33 +33 очень
душно
1006.4 1004.7 +37.0 6
15 22.05 СВ 2 5000 м зарница {гроза, дождь} 10/8 300 м
[Cb cap]
+25.5 +24.8 96 +36 +36 очень
душно
1009.2 1007.5
00 23.05 ЮЗ 2 6000 м 6/4 600 м
[Sc Ac trans]
+27.0 +25.6 92 +40 +40 очень
душно
1008.5 1006.8 +24.0 2
06 23.05 З 2 7000 м 6/6 600 м
[Cb calv]
+33.5 +26.4 66 +50 +59 опасность
перегрева
1010.8 1009.1
09 23.05 ЮЗ 2 7000 м в посл. час морось {дождь} 10/8 300 м
[Cb calv]
+32.0 +28.1 80 +53 +54 опасность
перегрева
1006.5 1004.8
12 23.05 ЮЗ 5 6000 м {дождь, морось} 8/5 300 м
[Cb calv Ac trans]
+31.0 +26.0 75 +46 +46 опасность
перегрева
1006.6 1004.9 +35.0 2
15 23.05 З 4 5000 м 3/3 1000 м
[Sc]
+29.0 +24.8 78 +41 +41 опасность
перегрева
1009.7 1008.0
00 24.05 ЮЗ 2 6000 м 9/6 600 м
[Cb calv Ac trans]
+27.5 +25.3 88 +40 +40 очень
душно
1008.7 1007.0 +26.7
03 24.05 С 2 7000 м 5/4 600 м
[Cu Sc Ci fib]
+30.5 +26.0 77 +46 +54 опасность
перегрева
1010.7 1009.0
06 24.05 ЮЗ 2 7000 м 8/6 600 м
[Cu Sc Ci fib]
+34.0 +25.7 62 +49 +57 опасность
перегрева
1010.1 1008.4
09 24.05 ЮЗ 2 7000 м в посл. час морось 9/6 600 м
[Cb calv Ac und]
+32.5 +27.0 73 +51 +52 опасность
перегрева
1006.3 1004.6
12 24.05 В 32 6000 м слаб. морось {гроза} 9/6 300 м
[Cb cap Ac As]
+25.5 +25.5 100 +37 +37 очень
душно
1007.4 1005.7 +35.8 30
15 24.05 З 2 5000 м в посл. час морось 9/5 300 м
[Sc Ac trans]
+25.5 +25.5 100 +37 +37 очень
душно
1010.3 1008.6
00 25.05 ЮЗ 2 6000 м 8/4 300 м
[Sc Ac und]
+25.0 +24.5 97 +35 +35 очень
душно
1009.0 1007.3 0.0
03 25.05 ЮВ 1 7000 м 9/5 300 м
[Sc Ac und]
+29.5 +25.6 80 +44 +47 опасность
перегрева
1010.5 1008.8
06 25.05 ЮЗ 2 7000 м 6/6 600 м
[Cb calv]
+34.0 +27.0 67 +52 +61 опасность
перегрева
1008.0 1006.3
09 25.05 ЮЗ 1 7000 м 5/5 600 м
[Cb calv]
+36.0 +24.9 53 +49 +55 опасность
перегрева
1006.1 1004.4
12 25.05 ЮЗ 3 6000 м слаб. морось {гроза} 10/8 300 м
[Cb calv As op]
+26.5 +24.3 88 +37 +37 очень
душно
1005.7 1004.0 +36.2 0.0
15 25.05 СВ 3 5000 м в посл. час морось 6/3 300 м
[Sc Ac trans]
+26.5 +24.3 88 +37 +37 очень
душно
1006.4 1004.7

 

Местоположение метеостанции Янгон (Мьянма): широта 16.77 долгота 96.17 высота над уровнем моря 15 м.

В архиве по умолчанию представлена погода у Янгоне за последнюю неделю. Архивные данные за месяц целиком и за предыдущие месяцы, начиная с января 2011 года, Вы можете получить, выбрав интересующий диапазон дат из раскрывающегося списка и нажав кнопку "Ввод!".


*Определитесь, кто Вы:
робот инопланетянин человек

Внимание! Время в таблицах - всемирное. Для получения местного времени необходимо прибавить поправку, которая равна 6.5 ч.

Смотрите также архив погоды в соседних городах и на ближайших метеорологических станциях:

Погода в Мингаладоне (Мьянма) (14 км)
Погода в Хмавби (Мьянма) (41 км)
Погода в Маубине (Мьянма) (56 км)
Погода в Пегу (Мьянма) (71 км)
Погода в Пхьяпоуне (Мьянма) (77 км)
Погода в Хинтаде (Мьянма) (128 км)
Погода в Бассейне (Мьянма) (149 км)
Погода в Моламьяйне (Мьянма) (157 км)
Погода в Пхаане (Мьянма) (160 км)
Погода в Гва (Мьянма) (191 км)

Пояснения к столбцам:

Ветер - указаны скорость ветра в м/с - средняя за 10 мин, порывы в срок и между сроками (в фигурных скобках) и направление, откуда дует ветер: С - северный, СВ - северо-восточный, В - восточный, ЮВ - юго-восточный, Ю - южный, ЮЗ - юго-западный, З - западный, СЗ - северо-западный.
Видимость - горизонтальная дальность видимости в метрах или километрах. При видимости от 1 до 10 км при отсутствии осадков обычно наблюдается дымка, при ухудшении видимости до 1 км и менее - туман. В сухую погоду видимость может ухудшаться дымом, пылью или мглою.
Явления - указаны атмосферные явления, наблюдавшиеся в срок или в последний час перед сроком; фигурными скобками обозначены явления, наблюдавшиеся между сроками (за 1-3 часа до срока); квадратными скобками обозначены град или гололедные отложения с указанием их диаметра в мм.
Облачность - указаны через наклонную черту общая и нижняя облачность в баллах и высота нижней границы облаков в метрах; квадратными скобками обозначены формы облаков: Ci - перистые, Cs - перисто-слоистые, Cc - перисто-кучевые, Ac - высококучевые, As - высокослоистые, Sc - слоисто-кучевые, Ns - слоисто-дождевые, Cu - кучевые, Cb - кучево-дождевые. Подробнее классификацию облаков см. в Атласе облаков (PDF).
T - Температура воздуха - температура, измеренная на высоте 2 м над землей.
Td - Температура точки росы - температура, при понижении до которой содержащийся в воздухе водяной пар достигнет насыщения.
f - Относительная влажность воздуха - влажноcть воздуха, измеренная на высоте 2 м над землей.
Te - Эффективная температура - температура, которую ощущает одетый по сезону человек в тени. Характеристика душности погоды. При расчете учитывается влияние влажности воздуха и скорости ветра на теплоощущения человека.
Tes - Эффективная температура на солнце - температура, которую ощущает человек, с поправкой на солнечный нагрев. Характеристика знойности погоды. Зависит от высоты солнца над горизонтом, облачности и скорости ветра. Ночью, в пасмурную погоду, а также при ветре 12 м/с и более поправка равна нулю.
P - Атмосферное давление - приведенное к уровню моря атмосферное давление.
Po - Атмосферное давление - измеренное на уровне метеостанции атмосферное давление.
Tmin - Минимальная температура - минимум температуры воздуха на высоте 2 м над землей.
Tmax - Максимальная температура - максимум температуры воздуха на высоте 2 м над землей.
R - Количество осадков - Количество выпавших осадков за период времени, мм. При наведении курсора мыши на число - период времени, за который выпало указанное количество осадков.
R24 - Количество осадков - Количество выпавших осадков за 24 часа, мм.
S - Снежный покров - Высота снежного покрова, см. При наведении курсора мыши на число - состояние снежного покрова и степень покрытия местности в баллах.